Weather History for Prescott, AZ

Change the Weather History Date:

Sunday, December 8, 2013

  Actual Average Record
Temperature  
Mean Temperature 30 °F 39 °F  
Max Temperature 38 °F 52 °F 80 °F (2006)
Min Temperature 21 °F 26 °F -4 °F (1978)
Degree Days  
Heating Degree Days 35    
Month to date heating degree days 231  
Since 1 July heating degree days 1137  
Cooling Degree Days 0    
Month to date cooling degree days 0  
Year to date cooling degree days 1127  
Moisture  
Dew Point 24 °F    
Average Humidity 74    
Maximum Humidity 89    
Minimum Humidity 52    
Precipitation  
Precipitation T in 0.03 in 0.33 in (1984)
Month to date precipitation 0.13 0.24  
Year to date precipitation 12.76 13.25  
Sea Level Pressure  
Sea Level Pressure 29.96 in    
Wind  
Wind Speed 5 mph (WSW)    
Max Wind Speed 21 mph    
Max Gust Speed 30 mph    
Visibility 8 miles    
Events Rain , Snow    
T = Trace of Precipitation, MM = Missing Value Source: NWS Daily Summary

Daily Weather History Graph

Daily Weather History Graph

Search for Another Location

Airport:

Trip Planner

Search our weather history database for the weather conditions in past years. The results will help you decide how hot, cold, wet, or windy it might be!

Date:

Astronomy

Dec. 08, 2013 Rise Set
Actual Time 7:24 AM MST 5:18 PM MST
Civil Twilight 6:56 AM MST 5:46 PM MST
Nautical Twilight 6:25 AM MST 6:18 PM MST
Astronomical Twilight 5:54 AM MST 6:48 PM MST
Moon 11:58 AM MST (12/8) 11:59 PM MST (12/8)
Length of Visible Light 10h 50m
Length of Day
9h 54m
Waxing Crescent, 40% of the Moon is Illuminated
Dec 8
Waxing Crescent
Dec 9
First Quarter
Dec 17
Full
Dec 25
Last Quarter
Jan 1
New

Hourly Weather History & Observations

Time (MST) Temp. Windchill Dew Point Humidity Pressure Visibility Wind Dir Wind Speed Gust Speed Precip Events Conditions
12:14 AM 33.8 °F 24.3 °F 30.2 °F 87% 29.90 in 1.8 mi SSW 13.8 mph 21.9 mph 0.00 in Snow Light Snow
12:22 AM 33.8 °F 23.9 °F 30.2 °F 87% 29.89 in 2.0 mi SW 15.0 mph 21.9 mph 0.00 in Snow Light Snow
12:28 AM 33.8 °F 24.3 °F 30.2 °F 87% 29.88 in 4.0 mi SW 13.8 mph - 0.00 in Snow Light Snow
12:42 AM 33.8 °F 23.9 °F 30.2 °F 87% 29.89 in 3.0 mi SW 15.0 mph 20.7 mph 0.00 in Rain Light Rain
12:53 AM 33.1 °F 24.4 °F 30.0 °F 89% 29.87 in 2.0 mi SW 11.5 mph 19.6 mph 0.00 in Snow Light Snow
1:05 AM 33.8 °F 27.7 °F 30.2 °F 87% 29.89 in 3.0 mi SW 6.9 mph - 0.00 in Snow Light Snow
1:22 AM 33.8 °F 24.3 °F 30.2 °F 87% 29.89 in 1.8 mi WSW 13.8 mph 21.9 mph 0.00 in Snow Light Snow
1:26 AM 33.8 °F 26.4 °F 30.2 °F 87% 29.90 in 2.5 mi WSW 9.2 mph 19.6 mph 0.00 in Snow Light Snow
1:37 AM 33.8 °F 26.4 °F 30.2 °F 87% 29.90 in 4.0 mi SW 9.2 mph 18.4 mph 0.00 in Snow Light Snow
1:53 AM 33.1 °F 24.9 °F 30.0 °F 89% 29.88 in 3.0 mi WSW 10.4 mph - 0.00 in Snow Light Snow
2:41 AM 33.8 °F 29.6 °F 30.2 °F 87% 29.91 in 4.0 mi WNW 4.6 mph - 0.00 in Snow Light Snow
2:53 AM 33.1 °F - 30.0 °F 89% 29.89 in 4.0 mi Calm Calm - 0.00 in Snow Light Snow
3:53 AM 33.1 °F 24.4 °F 28.9 °F 85% 29.91 in 10.0 mi WSW 11.5 mph - 0.00 in   Overcast
4:44 AM 32.0 °F 25.6 °F 26.6 °F 80% 29.94 in 10.0 mi SW 6.9 mph - 0.00 in   Mostly Cloudy
4:53 AM 32.0 °F 25.6 °F 26.1 °F 79% 29.93 in 10.0 mi SW 6.9 mph - 0.00 in   Mostly Cloudy
5:53 AM 30.9 °F 26.2 °F 25.0 °F 79% 29.96 in 10.0 mi West 4.6 mph - N/A   Scattered Clouds
6:53 AM 28.0 °F 22.8 °F 23.0 °F 81% 30.00 in 10.0 mi NNE 4.6 mph - N/A   Mostly Cloudy
7:53 AM 25.0 °F - 19.0 °F 78% 30.02 in 10.0 mi Calm Calm - N/A   Scattered Clouds
8:14 AM 28.4 °F - 19.4 °F 69% 30.01 in 10.0 mi Calm Calm - N/A   Mostly Cloudy
8:53 AM 28.0 °F 22.8 °F 19.0 °F 69% 30.04 in 10.0 mi NW 4.6 mph - N/A   Scattered Clouds
9:00 AM 28.4 °F 23.3 °F 19.4 °F 69% 30.03 in 10.0 mi NW 4.6 mph - N/A   Mostly Cloudy
9:20 AM 28.4 °F 22.2 °F 19.4 °F 69% 30.04 in 10.0 mi WNW 5.8 mph - N/A   Scattered Clouds
9:53 AM 30.0 °F 25.2 °F 19.9 °F 66% 30.04 in 10.0 mi NW 4.6 mph - N/A   Partly Cloudy
10:53 AM 33.1 °F 28.7 °F 19.9 °F 59% 30.04 in 10.0 mi North 4.6 mph - N/A   Partly Cloudy
11:53 AM 34.0 °F - 21.9 °F 61% 30.03 in 10.0 mi Calm Calm - N/A   Clear
12:53 PM 35.1 °F - 21.0 °F 57% 29.98 in 10.0 mi Calm Calm - N/A   Clear
1:53 PM 37.0 °F 33.3 °F 21.9 °F 54% 29.95 in 10.0 mi South 4.6 mph - N/A   Scattered Clouds
2:53 PM 37.9 °F 34.4 °F 21.0 °F 51% 29.92 in 10.0 mi SSE 4.6 mph - N/A   Scattered Clouds
3:53 PM 37.0 °F 31.6 °F 21.0 °F 52% 29.93 in 10.0 mi NNW 6.9 mph - N/A   Partly Cloudy
4:53 PM 35.1 °F 29.3 °F 23.0 °F 61% 29.94 in 10.0 mi WNW 6.9 mph - N/A   Mostly Cloudy
5:53 PM 32.0 °F 26.4 °F 21.9 °F 66% 29.98 in 10.0 mi WNW 5.8 mph - N/A   Mostly Cloudy
6:53 PM 30.9 °F 23.5 °F 19.9 °F 64% 30.01 in 10.0 mi WSW 8.1 mph - N/A   Scattered Clouds
7:53 PM 28.0 °F 21.7 °F 18.0 °F 66% 30.03 in 10.0 mi SSW 5.8 mph - N/A   Clear
8:53 PM 27.0 °F 21.6 °F 18.0 °F 69% 30.03 in 10.0 mi SSW 4.6 mph - N/A   Clear
9:53 PM 25.0 °F - 17.1 °F 72% 30.05 in 10.0 mi Calm Calm - N/A   Clear
10:53 PM 24.1 °F 15.2 °F 12.9 °F 62% 30.06 in 10.0 mi WNW 8.1 mph - N/A   Clear
11:53 PM 21.9 °F 13.4 °F 10.0 °F 60% 30.08 in 10.0 mi West 6.9 mph - N/A   Clear